Time,TemperatureF,DewpointF,PressureIn,WindDirection,WindDirectionDegrees,WindSpeedMPH,WindSpeedGustMPH,Humidity,HourlyPrecipIn,Conditions,Clouds,dailyrainin,SoftwareType,DateUTC
2013-05-04 00:02:00,70.0,70.0,29.79,North,7,4.0,7.0,100,0.00,,,1.51,,2013-05-04 04:02:00,
2013-05-04 00:12:00,70.0,70.0,29.79,North,7,4.0,7.0,100,0.00,,,1.51,,2013-05-04 04:12:00,
2013-05-04 00:22:00,70.0,70.0,29.79,North,6,0.0,3.0,100,0.00,,,1.50,,2013-05-04 04:22:00,
2013-05-04 00:33:00,70.0,70.0,29.78,NNE,19,3.0,5.0,100,0.00,,,1.50,,2013-05-04 04:33:00,
2013-05-04 00:42:00,70.0,70.0,29.78,NNE,19,3.0,5.0,100,0.00,,,1.50,,2013-05-04 04:42:00,
2013-05-04 00:52:00,70.0,70.0,29.77,North,352,2.0,3.0,100,0.00,,,1.50,,2013-05-04 04:52:00,
2013-05-04 01:02:00,69.0,69.0,29.77,North,0,2.0,4.0,100,0.00,,,1.50,,2013-05-04 05:02:00,
2013-05-04 01:12:00,69.0,69.0,29.76,North,0,2.0,5.0,100,0.00,,,1.48,,2013-05-04 05:12:00,
2013-05-04 01:22:00,69.0,69.0,29.76,North,0,2.0,5.0,100,0.00,,,1.48,,2013-05-04 05:22:00,
2013-05-04 01:32:00,69.0,69.0,29.76,North,357,2.0,2.0,100,0.00,,,1.48,,2013-05-04 05:32:00,
2013-05-04 01:43:00,69.0,69.0,29.76,North,357,2.0,2.0,100,0.00,,,1.48,,2013-05-04 05:43:00,
2013-05-04 01:52:00,69.0,69.0,29.76,NNW,335,4.0,4.0,100,0.00,,,1.48,,2013-05-04 05:52:00,
2013-05-04 02:01:00,68.0,68.0,29.75,NNW,335,0.0,0.0,100,0.00,,,1.48,,2013-05-04 06:01:00,
2013-05-04 02:11:00,68.0,68.0,29.75,NNW,335,1.0,1.0,100,0.00,,,0.25,,2013-05-04 06:11:00,
2013-05-04 02:21:00,68.0,68.0,29.75,NNW,335,1.0,1.0,100,0.00,,,0.25,,2013-05-04 06:21:00,
2013-05-04 02:32:00,68.0,68.0,29.74,NNW,336,4.0,5.0,100,0.00,,,0.25,,2013-05-04 06:32:00,
2013-05-04 02:42:00,68.0,68.0,29.74,NNW,336,4.0,5.0,100,0.00,,,0.25,,2013-05-04 06:42:00,
2013-05-04 02:52:00,68.0,68.0,29.73,North,350,0.0,0.0,100,0.00,,,0.25,,2013-05-04 06:52:00,
2013-05-04 03:01:00,68.0,68.0,29.72,North,350,0.0,0.0,100,0.00,,,0.25,,2013-05-04 07:01:00,
2013-05-04 03:11:00,68.0,68.0,29.73,North,350,0.0,0.0,100,0.00,,,0.03,,2013-05-04 07:11:00,
2013-05-04 03:21:00,68.0,68.0,29.73,North,350,0.0,0.0,100,0.00,,,0.03,,2013-05-04 07:21:00,
2013-05-04 03:32:00,67.0,67.0,29.72,North,350,0.0,0.0,100,0.00,,,0.03,,2013-05-04 07:32:00,
2013-05-04 03:42:00,67.0,67.0,29.72,North,350,0.0,0.0,100,0.00,,,0.03,,2013-05-04 07:42:00,
2013-05-04 03:52:00,67.0,67.0,29.72,North,350,0.0,0.0,100,0.00,,,0.03,,2013-05-04 07:52:00,
2013-05-04 04:01:00,67.0,67.0,29.71,North,350,0.0,0.0,100,0.00,,,0.03,,2013-05-04 08:01:00,
2013-05-04 04:11:00,67.0,67.0,29.71,North,350,0.0,0.0,100,0.00,,,0.03,,2013-05-04 08:11:00,
2013-05-04 04:21:00,67.0,67.0,29.71,North,350,0.0,0.0,100,0.00,,,0.03,,2013-05-04 08:21:00,
2013-05-04 04:32:00,67.0,67.0,29.70,North,350,0.0,0.0,100,0.00,,,0.03,,2013-05-04 08:32:00,
2013-05-04 04:42:00,67.0,67.0,29.70,North,350,0.0,0.0,100,0.00,,,0.03,,2013-05-04 08:42:00,
2013-05-04 04:52:00,67.0,67.0,29.70,North,350,0.0,0.0,100,0.00,,,0.03,,2013-05-04 08:52:00,
2013-05-04 05:02:00,67.0,67.0,29.72,North,350,0.0,0.0,100,0.00,,,0.03,,2013-05-04 09:02:00,
2013-05-04 05:11:00,67.0,67.0,29.72,North,350,0.0,0.0,100,0.00,,,0.03,,2013-05-04 09:11:00,
2013-05-04 05:22:00,66.0,66.0,29.72,North,350,0.0,0.0,100,0.00,,,0.00,,2013-05-04 09:22:00,
2013-05-04 05:32:00,66.0,66.0,29.72,North,350,0.0,0.0,100,0.00,,,0.00,,2013-05-04 09:32:00,
2013-05-04 05:42:00,66.0,66.0,29.72,North,350,0.0,0.0,100,0.00,,,0.00,,2013-05-04 09:42:00,
2013-05-04 05:53:00,66.0,66.0,29.71,North,350,0.0,0.0,100,0.00,,,0.00,,2013-05-04 09:53:00,
2013-05-04 06:03:00,66.0,66.0,29.71,North,350,0.0,0.0,100,0.00,,,0.00,,2013-05-04 10:03:00,
2013-05-04 06:12:00,66.0,66.0,29.71,North,350,0.0,0.0,100,0.00,,,0.00,,2013-05-04 10:12:00,
2013-05-04 06:23:00,66.0,66.0,29.72,North,350,0.0,0.0,100,0.00,,,0.00,,2013-05-04 10:23:00,
2013-05-04 06:33:00,66.0,66.0,29.73,North,350,0.0,0.0,100,0.00,,,0.00,,2013-05-04 10:33:00,
2013-05-04 06:42:00,66.0,66.0,29.73,North,350,0.0,0.0,100,0.00,,,0.00,,2013-05-04 10:42:00,
2013-05-04 06:53:00,66.0,66.0,29.73,North,350,0.0,0.0,100,0.00,,,0.00,,2013-05-04 10:53:00,
2013-05-04 07:02:00,67.0,67.0,29.73,North,350,0.0,0.0,100,0.00,,,0.00,,2013-05-04 11:02:00,
2013-05-04 07:11:00,67.0,67.0,29.73,North,350,0.0,0.0,100,0.00,,,0.00,,2013-05-04 11:11:00,
2013-05-04 07:21:00,67.0,67.0,29.73,North,350,0.0,0.0,100,0.00,,,0.00,,2013-05-04 11:21:00,
2013-05-04 07:32:00,67.0,67.0,29.74,North,350,0.0,0.0,100,0.00,,,0.00,,2013-05-04 11:32:00,
2013-05-04 07:44:00,67.0,67.0,29.74,North,350,0.0,0.0,100,0.00,,,0.00,,2013-05-04 11:44:00,
2013-05-04 08:03:00,68.0,68.0,29.74,North,350,0.0,0.0,100,0.00,,,0.00,,2013-05-04 12:03:00,
2013-05-04 08:14:00,69.0,69.0,29.75,North,350,0.0,0.0,100,0.00,,,0.00,,2013-05-04 12:14:00,
2013-05-04 08:30:00,69.0,69.0,29.75,North,350,0.0,0.0,100,0.00,,,0.00,,2013-05-04 12:30:00,
2013-05-04 08:37:00,70.0,70.0,29.76,North,350,0.0,0.0,100,0.00,,,0.00,,2013-05-04 12:37:00,
2013-05-04 08:42:00,70.0,70.0,29.76,North,350,0.0,0.0,100,0.00,,,0.00,,2013-05-04 12:42:00,
2013-05-04 08:52:00,70.0,70.0,29.75,North,350,0.0,0.0,100,0.00,,,0.00,,2013-05-04 12:52:00,
2013-05-04 09:01:00,73.0,73.0,29.76,North,350,0.0,0.0,100,0.00,,,0.00,,2013-05-04 13:01:00,
2013-05-04 09:11:00,73.0,73.0,29.76,North,350,0.0,0.0,100,0.00,,,0.00,,2013-05-04 13:11:00,
2013-05-04 09:21:00,74.0,74.0,29.76,North,350,0.0,0.0,100,0.00,,,0.00,,2013-05-04 13:21:00,
2013-05-04 09:32:00,74.0,74.0,29.76,WNW,294,7.0,7.0,100,0.00,,,0.00,,2013-05-04 13:32:00,
2013-05-04 09:42:00,74.0,74.0,29.76,WNW,294,7.0,7.0,100,0.00,,,0.00,,2013-05-04 13:42:00,
2013-05-04 09:52:00,75.0,75.0,29.76,WSW,248,2.0,4.0,100,0.00,,,0.00,,2013-05-04 13:52:00,
2013-05-04 10:02:00,75.0,75.0,29.76,West,269,3.0,4.0,100,0.00,,,0.00,,2013-05-04 14:02:00,
2013-05-04 10:11:00,75.0,75.0,29.76,West,269,3.0,4.0,100,0.00,,,0.00,,2013-05-04 14:11:00,
2013-05-04 10:21:00,77.0,77.0,29.76,West,268,2.0,6.0,100,0.00,,,0.00,,2013-05-04 14:21:00,
2013-05-04 10:32:00,77.0,77.0,29.76,WSW,242,4.0,12.0,100,0.00,,,0.00,,2013-05-04 14:32:00,
2013-05-04 10:42:00,77.0,77.0,29.76,WSW,242,4.0,12.0,100,0.00,,,0.00,,2013-05-04 14:42:00,
2013-05-04 10:52:00,78.0,78.0,29.77,West,264,6.0,7.0,100,0.00,,,0.00,,2013-05-04 14:52:00,
2013-05-04 11:02:00,78.0,78.0,29.77,West,276,3.0,9.0,100,0.00,,,0.00,,2013-05-04 15:02:00,
2013-05-04 11:12:00,78.0,78.0,29.77,West,276,3.0,9.0,100,0.00,,,0.00,,2013-05-04 15:12:00,
2013-05-04 11:22:00,80.0,80.0,29.77,WSW,248,3.0,10.0,100,0.00,,,0.00,,2013-05-04 15:22:00,
2013-05-04 11:33:00,79.0,79.0,29.77,West,268,2.0,4.0,100,0.00,,,0.00,,2013-05-04 15:33:00,
2013-05-04 11:43:00,79.0,79.0,29.77,West,268,2.0,4.0,100,0.00,,,0.00,,2013-05-04 15:43:00,
2013-05-04 11:52:00,80.0,80.0,29.78,WNW,292,3.0,13.0,100,0.00,,,0.00,,2013-05-04 15:52:00,
2013-05-04 12:03:00,80.0,80.0,29.78,WSW,255,6.0,13.0,100,0.00,,,0.00,,2013-05-04 16:03:00,
2013-05-04 12:12:00,80.0,80.0,29.78,WSW,255,6.0,13.0,100,0.00,,,0.00,,2013-05-04 16:12:00,
2013-05-04 12:22:00,79.0,79.0,29.78,WNW,290,4.0,9.0,100,0.00,,,0.00,,2013-05-04 16:22:00,
2013-05-04 12:33:00,79.0,79.0,29.78,West,270,2.0,4.0,100,0.00,,,0.00,,2013-05-04 16:33:00,
2013-05-04 12:42:00,79.0,79.0,29.78,West,270,2.0,4.0,100,0.00,,,0.00,,2013-05-04 16:42:00,
2013-05-04 12:52:00,79.0,79.0,29.77,WNW,282,3.0,8.0,100,0.00,,,0.00,,2013-05-04 16:52:00,
2013-05-04 13:02:00,80.0,80.0,29.77,NW,324,2.0,12.0,100,0.00,,,0.00,,2013-05-04 17:02:00,
2013-05-04 13:12:00,80.0,80.0,29.77,NW,324,2.0,12.0,100,0.00,,,0.00,,2013-05-04 17:12:00,
2013-05-04 13:22:00,81.0,81.0,29.77,WSW,257,1.0,3.0,100,0.00,,,0.00,,2013-05-04 17:22:00,
2013-05-04 13:32:00,81.0,81.0,29.77,West,260,5.0,5.0,100,0.00,,,0.00,,2013-05-04 17:32:00,
2013-05-04 13:42:00,81.0,81.0,29.77,West,260,5.0,5.0,100,0.00,,,0.00,,2013-05-04 17:42:00,
2013-05-04 13:52:00,81.0,81.0,29.77,SW,225,2.0,10.0,100,0.00,,,0.00,,2013-05-04 17:52:00,
2013-05-04 14:01:00,84.0,84.0,29.76,WNW,294,2.0,6.0,100,0.00,,,0.00,,2013-05-04 18:01:00,
2013-05-04 14:12:00,84.0,84.0,29.76,WNW,294,2.0,6.0,100,0.00,,,0.00,,2013-05-04 18:12:00,
2013-05-04 14:22:00,78.0,78.0,29.76,SW,222,7.0,13.0,100,0.00,,,0.00,,2013-05-04 18:22:00,
2013-05-04 14:32:00,78.0,78.0,29.77,West,263,9.0,16.0,100,0.00,,,0.00,,2013-05-04 18:32:00,
2013-05-04 14:42:00,78.0,78.0,29.77,West,263,9.0,16.0,100,0.00,,,0.00,,2013-05-04 18:42:00,
2013-05-04 14:52:00,79.0,79.0,29.77,SW,229,5.0,8.0,100,0.00,,,0.00,,2013-05-04 18:52:00,
2013-05-04 15:01:00,78.0,78.0,29.77,West,259,7.0,13.0,100,0.00,,,0.00,,2013-05-04 19:01:00,
2013-05-04 15:11:00,78.0,78.0,29.77,West,259,7.0,13.0,100,0.00,,,0.00,,2013-05-04 19:11:00,
2013-05-04 15:21:00,78.0,78.0,29.76,WNW,286,2.0,12.0,100,0.00,,,0.00,,2013-05-04 19:21:00,
2013-05-04 15:32:00,80.0,80.0,29.75,SW,235,5.0,12.0,100,0.00,,,0.00,,2013-05-04 19:32:00,
2013-05-04 15:42:00,80.0,80.0,29.75,SW,235,5.0,12.0,100,0.00,,,0.00,,2013-05-04 19:42:00,
2013-05-04 15:52:00,80.0,80.0,29.76,WNW,284,8.0,16.0,100,0.00,,,0.00,,2013-05-04 19:52:00,
2013-05-04 16:02:00,79.0,79.0,29.75,SSW,197,3.0,14.0,100,0.00,,,0.00,,2013-05-04 20:02:00,
2013-05-04 16:11:00,79.0,79.0,29.75,SSW,197,3.0,14.0,100,0.00,,,0.00,,2013-05-04 20:11:00,
2013-05-04 16:22:00,80.0,80.0,29.74,SW,225,3.0,5.0,100,0.00,,,0.00,,2013-05-04 20:22:00,
2013-05-04 16:32:00,79.0,79.0,29.75,SSW,205,3.0,7.0,100,0.00,,,0.00,,2013-05-04 20:32:00,
2013-05-04 16:42:00,79.0,79.0,29.75,SSW,205,3.0,7.0,100,0.00,,,0.00,,2013-05-04 20:42:00,
2013-05-04 16:52:00,77.0,77.0,29.75,SW,217,7.0,10.0,100,0.00,,,0.00,,2013-05-04 20:52:00,
2013-05-04 17:02:00,78.0,78.0,29.75,West,281,2.0,8.0,100,0.00,,,0.00,,2013-05-04 21:02:00,
2013-05-04 17:12:00,78.0,78.0,29.75,West,281,2.0,8.0,100,0.00,,,0.00,,2013-05-04 21:12:00,
2013-05-04 17:22:00,77.0,77.0,29.75,WSW,254,5.0,13.0,100,0.00,,,0.00,,2013-05-04 21:22:00,
2013-05-04 17:33:00,76.0,76.0,29.74,West,279,1.0,7.0,100,0.00,,,0.00,,2013-05-04 21:33:00,
2013-05-04 17:43:00,76.0,76.0,29.74,West,279,1.0,7.0,100,0.00,,,0.00,,2013-05-04 21:43:00,
2013-05-04 17:53:00,77.0,77.0,29.74,WSW,255,4.0,7.0,100,0.00,,,0.00,,2013-05-04 21:53:00,
2013-05-04 18:03:00,76.0,76.0,29.74,West,264,1.0,4.0,100,0.00,,,0.00,,2013-05-04 22:03:00,
2013-05-04 18:12:00,76.0,76.0,29.74,West,264,1.0,4.0,100,0.00,,,0.00,,2013-05-04 22:12:00,
2013-05-04 18:22:00,76.0,76.0,29.74,WNW,293,3.0,10.0,100,0.00,,,0.00,,2013-05-04 22:22:00,
2013-05-04 18:33:00,76.0,76.0,29.73,West,274,1.0,7.0,100,0.00,,,0.00,,2013-05-04 22:33:00,
2013-05-04 18:42:00,76.0,76.0,29.74,NW,322,2.0,4.0,100,0.00,,,0.00,,2013-05-04 22:42:00,
2013-05-04 18:52:00,76.0,76.0,29.74,NW,322,2.0,4.0,100,0.00,,,0.00,,2013-05-04 22:52:00,
2013-05-04 19:02:00,77.0,77.0,29.74,NW,304,1.0,5.0,100,0.00,,,0.00,,2013-05-04 23:02:00,
2013-05-04 19:12:00,77.0,77.0,29.74,NW,304,1.0,5.0,100,0.00,,,0.00,,2013-05-04 23:12:00,
2013-05-04 19:22:00,76.0,76.0,29.75,NW,308,7.0,7.0,100,0.00,,,0.00,,2013-05-04 23:22:00,
2013-05-04 19:32:00,75.0,75.0,29.75,West,270,3.0,6.0,100,0.00,,,0.00,,2013-05-04 23:32:00,
2013-05-04 19:42:00,75.0,75.0,29.75,West,270,3.0,6.0,100,0.00,,,0.00,,2013-05-04 23:42:00,
2013-05-04 19:52:00,74.0,74.0,29.75,WNW,284,5.0,8.0,100,0.00,,,0.00,,2013-05-04 23:52:00,
2013-05-04 20:02:00,74.0,74.0,29.76,NW,306,7.0,8.0,100,0.00,,,0.00,,2013-05-05 00:02:00,
2013-05-04 20:11:00,74.0,74.0,29.76,NW,306,7.0,8.0,100,0.00,,,0.00,,2013-05-05 00:11:00,
2013-05-04 20:21:00,74.0,74.0,29.76,West,273,3.0,3.0,100,0.00,,,0.00,,2013-05-05 00:21:00,
2013-05-04 20:32:00,73.0,73.0,29.76,WNW,295,7.0,7.0,100,0.00,,,0.00,,2013-05-05 00:32:00,
2013-05-04 20:42:00,73.0,73.0,29.76,WNW,295,7.0,7.0,100,0.00,,,0.00,,2013-05-05 00:42:00,
2013-05-04 20:52:00,73.0,73.0,29.77,WNW,282,2.0,7.0,100,0.00,,,0.00,,2013-05-05 00:52:00,
2013-05-04 21:01:00,73.0,73.0,29.78,WNW,291,3.0,8.0,100,0.00,,,0.00,,2013-05-05 01:01:00,
2013-05-04 21:11:00,73.0,73.0,29.78,West,281,2.0,11.0,100,0.00,,,0.00,,2013-05-05 01:11:00,
2013-05-04 21:21:00,73.0,73.0,29.78,West,281,2.0,11.0,100,0.00,,,0.00,,2013-05-05 01:21:00,
2013-05-04 21:32:00,72.0,72.0,29.79,WSW,257,7.0,7.0,100,0.00,,,0.00,,2013-05-05 01:32:00,
2013-05-04 21:42:00,72.0,72.0,29.79,WSW,257,7.0,7.0,100,0.00,,,0.00,,2013-05-05 01:42:00,
2013-05-04 21:52:00,72.0,72.0,29.79,West,259,3.0,6.0,100,0.00,,,0.00,,2013-05-05 01:52:00,
2013-05-04 22:02:00,72.0,72.0,29.80,WNW,283,6.0,12.0,100,0.00,,,0.00,,2013-05-05 02:02:00,
2013-05-04 22:11:00,72.0,72.0,29.80,WNW,283,6.0,12.0,100,0.00,,,0.00,,2013-05-05 02:11:00,
2013-05-04 22:22:00,72.0,72.0,29.80,West,265,1.0,8.0,100,0.00,,,0.00,,2013-05-05 02:22:00,
2013-05-04 22:32:00,72.0,72.0,29.82,WSW,250,3.0,10.0,100,0.00,,,0.00,,2013-05-05 02:32:00,
2013-05-04 22:42:00,72.0,72.0,29.82,WSW,250,3.0,10.0,100,0.00,,,0.00,,2013-05-05 02:42:00,
2013-05-04 22:52:00,71.0,71.0,29.83,WSW,255,3.0,9.0,100,0.00,,,0.00,,2013-05-05 02:52:00,
2013-05-04 23:01:00,71.0,71.0,29.83,West,259,6.0,12.0,100,0.00,,,0.00,,2013-05-05 03:01:00,
2013-05-04 23:11:00,70.0,70.0,29.83,WNW,290,9.0,9.0,100,0.00,,,0.00,,2013-05-05 03:11:00,
2013-05-04 23:22:00,70.0,70.0,29.83,WNW,290,9.0,9.0,100,0.00,,,0.00,,2013-05-05 03:22:00,
2013-05-04 23:33:00,70.0,70.0,29.83,WNW,284,1.0,3.0,100,0.00,,,0.00,,2013-05-05 03:33:00,
2013-05-04 23:42:00,70.0,70.0,29.83,WNW,284,1.0,3.0,100,0.00,,,0.00,,2013-05-05 03:42:00,
2013-05-04 23:53:00,69.0,69.0,29.83,West,270,6.0,7.0,100,0.00,,,0.00,,2013-05-05 03:53:00,